AirNav  
 
 623 users online  

LS94 Alon USA - Krotz Springs Heliport
Krotz Springs, Louisiana, USA

GOING TO KROTZ SPRINGS?


FAA INFORMATION EFFECTIVE 09 NOVEMBER 2017

Location

FAA Identifier: LS94
Lat/Long: 30-31-59.0000N / 091-45-00.4100W
30-31.983333N / 091-45.006833W
30.5330556 / -91.7501139
(estimated)
Elevation: 36 ft. / 11 m (estimated)
Variation: 02E (2000)
Time zone: UTC -6 (UTC -5 during Daylight Saving Time)
Zip code: 70582

Heliport Operations

Heliport use: Private use. Permission required prior to landing
Activation date: 11/2000
Control tower: no
ARTCC: HOUSTON CENTER
FSS: DE RIDDER FLIGHT SERVICE STATION
Attendance: UNATNDD
Wind indicator: yes
Segmented circle: yes
Lights: SS-SR

Heliport Communications

WX AWOS-3PT at HZR (18 nm NE): 121.250 (225-638-3107)
WX AWOS-3PT at OPL (18 nm W): 118.775 (337-948-8560)

Nearby radio navigation aids

VOR radial/distance  VOR name  Freq  Var
LSUr271/23.7FIGHTING TIGER VORTAC116.5006E
LFTr029/23.9LAFAYETTE VORTAC109.8003E

 
NDB name  Hdg/Dist  Freq  Var  ID
NEW ROADS242/14.735604EFWX ..-. .-- -..-
ABBEVILLE032/34.323002EBNZ -... -. --..
DURALDE091/36.126302EECY . -.-. -.--

Heliport Services

Runway Information

Helipad H1

Dimensions: 40 x 40 ft. / 12 x 12 m
Surface: concrete
Runway edge lights: PERI
Traffic pattern: leftleft

Heliport Ownership and Management from official FAA records

Ownership: Privately-owned
Owner: ALON USA
BOX 453 HWY 105 S.
KROTZ SPRINGS, LA 70750
Phone 337-566-0219
Manager: KENDALL LAKEY
BOX 453 HWY 105 S.
KROTZ SPRINGS, LA 70750
Phone 337-566-0219

Instrument Procedures

There are no published instrument procedures at LS94.

Some nearby airports with instrument procedures:

KHZR - False River Regional Airport (18 nm NE)
KOPL - St Landry Parish Airport-Ahart Field (18 nm W)
KLFT - Lafayette Regional Airport/Paul Fournet Field (23 nm SW)
KARA - Acadiana Regional Airport (31 nm S)
KBTR - Baton Rouge Metropolitan Airport, Ryan Field (31 nm E)
 
Loc | Ops | Rwys | IFR | FBO | Links
Com | Nav | Svcs | Stats | Notes


 
Area around LS94 (Alon USA - Krotz Springs Heliport)
 
Road maps at: MapQuest Bing Google
 
Aerial photo
No photo
 
Sectional chart

 
Airport distance calculator
Flying to Alon USA - Krotz Springs Heliport? Find the distance to fly.

From to LS94

Sunrise and sunset
Times for 21-Nov-2017
 Local
(UTC-6)
 Zulu
(UTC)
Morning civil twilight06:1312:13
Sunrise06:3912:39
Sunset17:0723:07
Evening civil twilight17:3223:32

Current date and time
Zulu (UTC)  22-Nov-2017 05:29:51
Local (UTC-6)  21-Nov-2017 23:29:51
 
METAR
KHZR 
18nm NE 
220515Z AUTO 04004KT 10SM OVC049 13/11 A3007 RMK AO2 T01260111
KOPL 
18nm W 
220515Z AUTO 03007KT 10SM OVC050 13/12 A3006 RMK AO2 T01280121
KLFT 
24nm SW 
220453Z AUTO 36005KT 5SM RA BR BKN075 OVC085 14/14 A3005 RMK AO2 RAB0354 SLP176 P0008 T01440139
KARA 
31nm S 
220453Z AUTO 05005KT 10SM -RA SCT045 BKN065 OVC100 14/13 A3005 RMK AO2 RAB30 SLP175 P0000 T01440128
KBTR 
31nm E 
220453Z 03008KT 10SM OVC090 14/12 A3005 RMK AO2 SLP175 T01390122 $
TAF
KLFT 
24nm SW 
220318Z 2203/2224 02008KT P6SM VCSH SCT035 BKN050 TEMPO 2203/2206 -SHRA BKN025 FM220600 03006KT P6SM VCSH BKN050 FM221500 02012G20KT P6SM SCT035
NOTAMs
Click for the latest NOTAMs
NOTAMs are issued by the DoD/FAA and will open in a separate window not controlled by AirNav.

 

 
 

Would you like to see your business listed on this page?

 If your business provides an interesting product or service to pilots, flight crews, aircraft, or users of the Alon USA - Krotz Springs Heliport, you should consider listing it here.  To start the listing process, click on the button below
 
Add a business
 

Other Pages about Alon USA - Krotz Springs Heliport

Update a link
 
Copyright © AirNav, LLC. All rights reserved. Privacy Policy  Contact